Index of /shared/routes/64fbdccebca1fc113d7e80f769c0b6ca

[ICO]NameLast modifiedSizeDescription

[PARENTDIR]Parent Directory  -  
[   ]160427-1013-Untitled.kmz2016-04-27 20:51 62K 
[   ]160427-1013-Untitled.kmz.php2016-04-27 20:51 620  
[IMG]160427-1013-Untitled.kmz.png2016-04-27 20:51 0  
[   ]160531-0550-Untitled.kmz2016-05-31 23:48 52K 
[   ]160531-0550-Untitled.kmz.php2016-05-31 23:48 646  
[IMG]160531-0550-Untitled.kmz.png2016-05-31 23:48 0  
[   ]160627-1224-Untitled.kmz2016-06-28 01:56 49K 
[   ]160627-1224-Untitled.kmz.php2016-06-28 01:56 610  
[IMG]160627-1224-Untitled.kmz.png2016-06-28 01:56 0  
[   ]160630-1226-Untitled.kmz2016-06-30 23:11 48K 
[   ]160630-1226-Untitled.kmz.php2016-06-30 23:11 618  
[IMG]160630-1226-Untitled.kmz.png2016-06-30 23:11 0  
[   ]160705-1054-Untitled.kmz2016-07-05 21:48 61K 
[   ]160705-1054-Untitled.kmz.php2016-07-05 21:48 597  
[IMG]160705-1054-Untitled.kmz.png2016-07-05 21:48 0  
[   ]160718-1024-Untitled.kmz2016-07-19 02:24 82K 
[   ]160718-1024-Untitled.kmz.php2016-07-19 02:24 697  
[IMG]160718-1024-Untitled.kmz.png2016-07-19 02:24 0  
[   ]160719-1200-Untitled.kmz2016-07-20 02:29 64K 
[   ]160719-1200-Untitled.kmz.php2016-07-20 02:29 705  
[IMG]160719-1200-Untitled.kmz.png2016-07-20 02:29 0  
[   ]160721-1434-Untitled.kmz2016-07-22 01:19 52K 
[   ]160721-1434-Untitled.kmz.php2016-07-22 01:19 655  
[IMG]160721-1434-Untitled.kmz.png2016-07-22 01:19 0  
[   ]160722-1203-Untitled.kmz2016-07-24 02:24 47K 
[   ]160722-1203-Untitled.kmz.php2016-07-24 02:24 696  
[IMG]160722-1203-Untitled.kmz.png2016-07-24 02:24 0  
[   ]160726-0743-Untitled.kmz2016-07-26 19:53 90K 
[   ]160726-0743-Untitled.kmz.php2016-07-26 19:53 643  
[IMG]160726-0743-Untitled.kmz.png2016-07-26 19:53 0  
[   ]160911-1150-Untitled.kmz2016-09-11 20:30 23K 
[   ]160911-1150-Untitled.kmz.php2016-09-11 20:30 683  
[IMG]160911-1150-Untitled.kmz.png2016-09-11 20:30 0  
[   ]160913-1042-Untitled.kmz2016-09-14 01:40 73K 
[   ]160913-1042-Untitled.kmz.php2016-09-14 01:40 706  
[IMG]160913-1042-Untitled.kmz.png2016-09-14 01:40 0  
[   ]170522-1246-Untitled.kmz2017-05-22 20:49 19K 
[   ]170522-1246-Untitled.kmz.php2017-05-22 20:49 686  
[IMG]170522-1246-Untitled.kmz.png2017-05-22 20:49 0  
[   ]170913-1156-Untitled.kmz2017-09-14 19:30 75K 
[   ]170913-1156-Untitled.kmz.php2017-09-14 19:30 705  
[IMG]170913-1156-Untitled.kmz.png2017-09-14 19:30 0  

Apache/2.4.29 (Ubuntu) Server at kineticgps.com Port 80